User: anonymous
Location: Unspecified
(0.0000°N, 0.0000°E)
Time: 20:51:48
(UTC+02:00)
Language:

ISS - Orbit

View from above orbital plane
View from above orbital plane
View from above satellite
View from above satellite

Ground track
Ground track

The orbit data is extracted from the following two-line orbital elements,

1 25544U 98067A   14245.51991314  .00013026  00000-0  23431-3 0   101
2 25544 051.6451 076.2836 0003709 072.7397 020.6341 15.50183561903328
Epoch (UTC): 02 September 2014 12:28:40
Eccentricity: 0.0003709
inclination: 51.6451°
perigee height: 413 km
apogee height: 419 km
right ascension of ascending node: 76.2836°
argument of perigee: 72.7397°
revolutions per day: 15.50183561
mean anomaly at epoch: 20.6341°
orbit number at epoch: 90332

The dashed part of the orbit path shows where the satellite is in the earth's shadow,  

DLR